{"data":{"norad_id":60438,"intl_designator":"2024-144P","name":"STARLINK-32240","alt_names":[],"object_type":"PAYLOAD","status":"ACTIVE","operator":null,"country":"US","launch_date":"2024-08-12","launch_site_code":"AFETR","launch_vehicle":null,"mission":null,"orbit_class":"UNKNOWN","rcs_meters":null,"size_class":null,"mass_kg":null,"dimensions":null,"purposes":["comms"],"wikipedia_slug":null,"has_3d_model":false,"image_url":null,"decayed_at":null,"tle_current":{"epoch":"2026-05-24T21:58:38.612352Z","epoch_age_seconds":85503,"freshness":"FRESH","line1":"1 60438U 24144P   26144.91572468  .00000484  00000+0  25458-4 0  9998","line2":"2 60438  53.1618 222.0827 0000925  94.9687 265.1421 15.34389143101036","mean_motion":15.34389143,"eccentricity":9.25e-5,"inclination_deg":53.1618,"raan_deg":222.0827,"arg_perigee_deg":94.9687,"mean_anomaly_deg":265.1421,"bstar":2.5458e-5,"rev_number":10103,"period_min":93.848422127424,"perigee_km":462.10272898224,"apogee_km":463.36829039654,"semimajor_km":6840.8725096894,"source":"CELESTRAK","updated_at":"2026-05-25T13:38:19.275399Z"}}}